GW3602 Weather Reports


Display with metric or nautical units.
time (UTC)temp
F
wind
direction
speed
MPH
gust
MPH
rain 1hr
in
rain 24hr
in
rain mn
in
humidity
%
barometer
mb
20260509113026 51 214 0.0 4.0 0.00 0.67 0.31 92 1007.6
20260509111526 51 169 1.0 3.0 0.00 0.67 0.31 91 1007.6
20260509110018 51 206 0.0 2.0 0.00 0.67 0.31 91 1007.4
20260509104524 51 140 0.0 2.0 0.00 0.67 0.31 91 1007.3
20260509103007 51 225 0.0 3.0 0.00 0.67 0.31 91 1007.3
20260509101510 51 135 0.0 2.0 0.00 0.67 0.31 91 1007.4
20260509100017 51 135 0.0 3.0 0.00 0.67 0.31 91 1007.5
20260509094526 51 126 0.0 4.0 0.00 0.67 0.31 91 1007.5
20260509093024 51 214 0.0 3.0 0.00 0.67 0.31 91 1007.7
20260509091509 51 147 0.0 3.0 0.00 0.67 0.31 91 1007.8
20260509090015 51 124 0.0 4.0 0.00 0.67 0.31 91 1007.9
20260509084520 51 173 1.0 4.0 0.00 0.67 0.31 91 1008.0
20260509083020 51 136 0.0 3.0 0.00 0.67 0.31 91 1008.0
20260509081525 51 198 1.0 4.0 0.01 0.67 0.31 91 1008.1
20260509080008 51 146 1.0 4.0 0.02 0.67 0.31 91 1008.1
20260509074512 50 164 0.0 3.0 0.02 0.67 0.31 91 1008.1
20260509073029 50 180 0.0 4.0 0.03 0.67 0.31 91 1008.1
20260509071522 50 264 0.0 3.0 0.05 0.66 0.30 91 1008.1
20260509070025 50 158 1.0 4.0 0.17 0.65 0.29 91 1008.3
20260509064525 51 2 1.0 4.0 0.20 0.65 0.29 91 1008.4
20260509063024 50 280 1.0 5.0 0.20 0.64 0.28 91 1008.4
20260509061518 50 164 0.0 6.0 0.18 0.61 0.25 90 1008.6
20260509060035 50 269 1.0 6.0 0.06 0.48 0.12 90 1008.9
20260509054526 50 143 2.0 8.0 0.04 0.45 0.09 90 1008.9
20260509053033 50 118 1.0 5.0 0.06 0.44 0.08 90 1009.0
20260509051520 50 129 1.0 3.0 0.06 0.43 0.07 90 1009.2
20260509050022 50 75 1.0 2.0 0.06 0.42 0.06 89 1009.3
20260509044504 50 265 0.0 4.0 0.06 0.41 0.05 89 1009.4
20260509043010 50 135 0.0 4.0 0.04 0.38 0.02 89 1009.5
20260509041516 50 204 1.0 4.0 0.04 0.37 0.01 89 1009.7
20260509040020 50 157 2.0 7.0 0.04 0.36 0.00 89 1009.9
20260509034505 50 139 0.0 7.0 0.03 0.35 0.35 89 1010.2
20260509033008 50 152 1.0 4.0 0.02 0.34 0.34 88 1010.4
20260509031516 50 212 1.0 5.0 0.01 0.33 0.33 88 1010.4
20260509030015 50 150 0.0 6.0 0.00 0.32 0.32 88 1010.3
20260509024518 50 235 0.0 4.0 0.00 0.32 0.32 89 1010.4
20260509023008 50 108 1.0 4.0 0.00 0.32 0.32 89 1010.4
20260509021508 50 88 1.0 4.0 0.01 0.32 0.32 89 1010.6
20260509020012 50 146 1.0 4.0 0.02 0.32 0.32 89 1010.5
20260509014516 50 227 1.0 7.0 0.03 0.32 0.32 89 1010.5
20260509013022 50 204 0.0 3.0 0.05 0.32 0.32 89 1010.4
20260509011528 49 190 0.0 3.0 0.05 0.31 0.31 89 1010.3
20260509010017 50 140 1.0 4.0 0.06 0.30 0.30 89 1010.3
20260509004514 50 95 0.0 3.0 0.07 0.29 0.29 89 1010.3
20260509003022 50 165 0.0 2.0 0.07 0.27 0.27 88 1010.5
20260509001524 50 226 1.0 2.0 0.07 0.26 0.26 88 1010.3
20260509000028 50 186 0.0 3.0 0.06 0.24 0.24 88 1010.1
20260508234508 50 263 1.0 3.0 0.08 0.22 0.22 88 1010.2
20260508233017 50 176 0.0 1.0 0.09 0.20 0.20 87 1010.2
20260508231522 50 262 0.0 2.0 0.12 0.19 0.19 87 1010.1
20260508230026 50 203 0.0 4.0 0.13 0.18 0.18 86 1009.9
20260508224527 51 146 0.0 2.0 0.09 0.14 0.14 85 1010.4
20260508223033 51 295 0.0 3.0 0.06 0.11 0.11 83 1010.3
20260508221518 52 229 0.0 3.0 0.02 0.07 0.07 79 1010.4
20260508220025 52 265 0.0 2.0 0.00 0.05 0.05 78 1009.8
20260508214531 52 276 0.0 2.0 0.01 0.05 0.05 78 1010.0
20260508213014 52 160 1.0 6.0 0.01 0.05 0.05 77 1010.1
20260508211514 53 145 0.0 6.0 0.01 0.05 0.05 77 1010.2
20260508210003 53 186 2.0 7.0 0.01 0.05 0.05 76 1010.4
20260508204515 54 134 2.0 10.0 0.00 0.04 0.04 73 1010.6
20260508203007 55 240 2.0 10.0 0.00 0.04 0.04 70 1010.9
20260508201512 56 221 1.0 9.0 0.00 0.04 0.04 67 1010.9
20260508200015 57 209 2.0 9.0 0.00 0.04 0.04 66 1010.9
20260508194504 57 274 2.0 7.0 0.00 0.04 0.04 66 1010.9
20260508193006 59 188 1.0 7.0 0.00 0.04 0.04 64 1010.9
20260508191509 59 284 3.0 12.0 0.00 0.04 0.04 63 1011.1
20260508190022 60 89 2.0 8.0 0.00 0.04 0.04 63 1011.1
20260508184520 59 205 3.0 10.0 0.00 0.04 0.04 64 1011.1
20260508183021 59 215 4.0 9.0 0.00 0.04 0.04 64 1011.2
20260508181506 58 212 3.0 8.0 0.00 0.04 0.04 66 1011.4
20260508180017 57 283 2.0 6.0 0.00 0.04 0.04 66 1011.8
20260508174516 56 257 2.0 8.0 0.00 0.04 0.04 65 1011.8
20260508173021 57 257 2.0 7.0 0.00 0.04 0.04 65 1011.8
20260508171529 59 257 4.0 11.0 0.00 0.04 0.04 59 1011.7
20260508170008 59 158 4.0 11.0 0.00 0.04 0.04 60 1011.9
20260508164514 58 306 2.0 6.0 0.00 0.04 0.04 64 1012.0
20260508163015 57 161 1.0 7.0 0.00 0.04 0.04 64 1012.1
20260508161522 57 295 2.0 5.0 0.00 0.04 0.04 64 1012.2
20260508160048 57 331 2.0 6.0 0.00 0.04 0.04 64 1012.4
20260508154511 56 6 1.0 5.0 0.00 0.04 0.04 68 1012.6
20260508153017 56 301 2.0 4.0 0.00 0.04 0.04 69 1012.6
20260508151517 54 252 1.0 5.0 0.00 0.04 0.04 69 1012.7
20260508150027 53 295 2.0 7.0 0.00 0.04 0.04 69 1012.8
20260508144526 53 298 2.0 7.0 0.00 0.04 0.04 71 1012.8
20260508143010 52 293 2.0 5.0 0.00 0.04 0.04 73 1012.8
20260508141518 51 246 0.0 2.0 0.01 0.04 0.04 77 1012.8
20260508140021 49 256 0.0 1.0 0.01 0.04 0.04 80 1012.8
20260508134531 49 194 0.0 1.0 0.04 0.04 0.04 80 1012.8
20260508133026 48 264 0.0 1.0 0.04 0.04 0.04 80 1012.9
20260508131512 47 306 1.0 4.0 0.03 0.03 0.03 78 1013.2
20260508130019 48 252 0.0 2.0 0.03 0.03 0.03 76 1013.3
20260508124522 49 227 0.0 1.0 0.00 0.00 0.00 73 1013.1
20260508123009 48 227 0.0 3.0 0.00 0.00 0.00 72 1013.0
20260508121541 48 290 0.0 3.0 0.00 0.00 0.00 73 1012.7
20260508120014 48 288 3.0 5.0 0.00 0.00 0.00 72 1012.6
20260508114514 48 297 1.0 4.0 0.00 0.00 0.00 72 1012.4